sat.trackr.live / text

‹ back to catalog

ORBCOMM FM113

NORAD 41185 · 2015-081G

PAYLOAD ACTIVE UNKNOWN

§ Identity

Operator
Country
ORB
Launch date
2015-12-22
Launch site
AFETR
Launch vehicle
Mass (kg)
RCS (m²)
0.47

Purposes: comms

External: N2YO · Heavens-Above · Gunter

§ Orbital elements

Epoch: 2026-09-20T04:14:16.632960Z

Period
98.70 min
Inclination
46.9999°
Eccentricity
0.0002282
Mean motion
14.58935756 rev/d
Perigee alt
695.0 km
Apogee alt
698.2 km
Semi-major
7,074.7 km
B*
8.1606e-5
RAAN
181.4600°
Arg perigee
288.7949°
Mean anomaly
71.2689°
Rev number
57,280

§ Raw data

ORBCOMM FM1131 41185U 15081G   26263.17658140  .00000215  00000+0  81606-4 0  99972 41185  46.9999 181.4600 0002282 288.7949  71.2689 14.58935756572806

JSON: /api/v1/satellites/41185 · /tle

For live sub-satellite position, see the globe view (requires WebGL).

§ Visibility from observer

Set your observer location to see the next 7 days of passes ≥ 10°. The values pass through the URL so the page stays shareable.

No JS? Fill the form by hand. The geolocation button needs JavaScript.

§ Radio — SatNOGS DB

ModeDescriptionDownlinkUplink
FM Telemetry 137.663 MHz
FM Telemetry 137.800 MHz

2 transmitters · refreshed weekly from db.satnogs.org